Weather Roundup
Issued by NWS Springfield, MO

Home | Current Version | Previous Version | Text Only | Print | Product List | Glossary On
Versions: 1 2 3 4 5 6 7 8 9 10 11 12 13 14 15 16 17 18 19 20 21 22 23 24 25 26 27 28 29 30 31 32 33 34 35 36 37 38 39 40 41 42 43 44 45 46 47 48 49 50
000
NZUS99 KSGF 260007
HRRSGF

HOURLY WEATHER
NATIONAL WEATHER SERVICE SPRINGFIELD MO
700 PM CDT WED APR 25 2018

......SGF CWA......

CITY           SKY/WX    TMP DP  RH WIND       PRES   REMARKS
SPRINGFIELD    LGT RAIN  53  48  83 E3        29.98F
6HR MIN TEMP:  53; 6HR MAX TEMP:  56; 6HR PCP:  0.33;

JOPLIN         LGT RAIN  53  51  93 VRB3      29.99F
6HR MIN TEMP:  52; 6HR MAX TEMP:  56; 6HR PCP:  0.75;

WEST PLAINS    CLOUDY    55  51  86 N3        30.00F
6HR MIN TEMP:  55; 6HR MAX TEMP:  60; 6HR PCP:  0.03;

ROLLA          LGT RAIN  51  48  89 NW8       30.01F
6HR MIN TEMP:  51; 6HR MAX TEMP:  60; 6HR PCP:  0.05;

OSAGE BEACH    LGT RAIN  50  49  96 N5        30.03F
BRANSON        LGT RAIN  50  50 100 CALM      29.99F FOG

......SURROUNDING SGF CWA......

CITY           SKY/WX    TMP DP  RH WIND       PRES   REMARKS
CHANUTE        CLOUDY    51  48  89 N12       30.03S
PARSONS        CLOUDY    54  50  86 N12       30.02F
COFFEYVILLE    CLOUDY    53  51  93 NW9       30.01F
EMPORIA        LGT RAIN  47  45  93 N10       30.07S FOG
GROVE OK       DRIZZLE   52  52 100 W6        30.01F
ROGERS AR      RAIN      51  50  96 W7        29.99S FOG
SILOAM SPRINGS LGT RAIN  51  50  96 W10       30.00S
HARRISON AR    CLOUDY    51  51 100 SE3       29.98F
NEAR YELLVILLE RAIN      54  52  93 CALM      29.99F FOG

......KANSAS AND MISSOURI......

CITY           SKY/WX    TMP DP  RH WIND       PRES   REMARKS
KANSAS CTY INT CLOUDY    50  48  93 N7        30.05F
DOWNTOWN KC    CLOUDY    52  47  83 N6        30.05F
COLUMBIA       CLOUDY    52  48  86 NW6       30.02F
SEDALIA        LGT RAIN  51  50  96 N7        30.04F
ST JOSEPH      CLOUDY    52  40  63 NE9       30.07F
ST LOUIS       CLOUDY    63  48  58 NW7       29.97F
SPIRIT OF STL  CLOUDY    62  49  62 NW7       29.96F
KIRKSVILLE     CLOUDY    53  47  79 W7        30.02F
WICHITA        PTSUNNY   50  44  80 N15       30.10S
TOPEKA         CLOUDY    50  49  96 N5        30.07S
OLATHE         CLOUDY    48  48 100 N8        30.04F

......TENNESSEE......

CITY           SKY/WX    TMP DP  RH WIND       PRES   REMARKS
MEMPHIS        CLOUDY    62  47  57 N7        29.97F
NASHVILLE      CLOUDY    66  49  54 N5        29.94F

......ARKANSAS.......

CITY           SKY/WX    TMP DP  RH WIND       PRES   REMARKS
FAYETTEVILLE   LGT RAIN  52  51  97 NW9       29.98F FOG
FT SMITH       LGT RAIN  54  53  97 W12       30.00S
LITTLE ROCK    LGT RAIN  55  54  96 E3        29.95F FOG

......OKLAHOMA.......

CITY           SKY/WX    TMP DP  RH WIND       PRES   REMARKS
TULSA          CLOUDY    51  45  79 NW13      30.04F
PONCA CITY     CLOUDY    50  43  77 N8        30.09F
MCALESTER      CLOUDY    51  48  89 NW7       30.07S
OKLAHOMA CITY  PTSUNNY   52  40  63 N17       30.09F

......IOWA............

CITY           SKY/WX    TMP DP  RH WIND       PRES   REMARKS
DES MOINES     MOSUNNY   64  27  24 NE8       30.01F
QUAD CITIES    FAIR      63  29  27 NW5       29.98F

......ILLINOIS........

CITY           SKY/WX    TMP DP  RH WIND       PRES   REMARKS
QUINCY         CLOUDY    59  40  49 N7        30.00F
CHICAGO        FAIR      45  30  55 NE14      30.04F





USA.gov is the U.S. government's official web portal to all federal, state and local government web resources and services.